Погода в Згеже

Польша     51°51′21″N   19°24′19″E
темп.,
°C
ветер,
м/с
пор.,
м/с
влажн.,
%
обл.,
%
осадки,
мм/ч
давл.,
гПа
погр.,
м
28 сентября, вт
вт2823:00+12вюв4116864 0.0 1021301
02:00+10вюв4874100 0.0 1022211
05:00+9вюв3776100 0.0 1022183
08:00+10вюв4874100 0.0 1023229
11:00+14юв4559100 0.0 1024486
14:00+16вюв4453100 0.0 1023793
17:00+15вюв4557100 0.0 1023639
20:00+12вюв496736 0.0 1024297
29 сентября, ср
ср2923:00+11юв410725 0.0 1025272
02:00+9вюв49766 0.0 1025226
05:00+8вюв49789 0.0 1024209
08:00+9вюв5127288 0.0 1024335
11:00+14вюв7115374 0.0 1023703
14:00+17юв795421 0.0 10211102
17:00+16юв61061100 0.0 1020745
20:00+15юв51167100 0.0 1021477
30 сентября, чт
чт3023:00+14ююв51171100 0.0 1021387
02:00+14зюз4892100 0.2 1022483
05:00+13зюз3889100 0.2 1023506
08:00+12зсз4878100 0.2 1025421
11:00+12зсз4766100 0.0 1027676
14:00+15з4547100 0.0 10271171
17:00+14з354197 0.0 1027946
20:00+11з11480 0.0 102820
1 октября, пт
пт123:00+10ююз11524 0.0 102910
02:00+9ююв22545 0.0 102922
05:00+8ююв2462100 0.0 102980
08:00+9ююв357811 0.0 1028150
11:00+14ююв465242 0.0 1027786
14:00+17ююв564938 0.0 10251388
17:00+16ююв465428 0.0 1023935
20:00+12ююв497447 0.0 1023270
2 октября, сб
сб223:00+11ююв5118345 0.0 1022280
02:00+11ююв4118439 0.0 1021248
05:00+11ю5127841 0.0 1019303
08:00+12ю6166956 0.0 1018669
11:00+17ююз81348100 0.0 10181015
14:00+19ююз71038100 0.0 10171301
17:00+18ююз5944100 0.0 1017820
20:00+15ююз41053100 0.0 1017417